AEHF-5 (USA 292) (44481 NORAD) Tracking and Keplerian Element Data

This shows tracking and keplerian element data for the satellite.

Feedback or suggestion? Click here.




ElementValue
Catalog44481
NameAEHF-5 (USA 292)
Epoch Orbit34
Epoch Day247.84495611
Epoch Year2019
RAAN300.7867
Inclination7.9087
Eccentricity0.1149024
Argument of Perigee180.1482
Mean Anonmoly153.5333
Mean Motion1.21369776
Decay Rate-1.47E-06
L11 44481U 19051A 19247.84495611 -.00000147 00000-0 00000+0 0 9990
L22 44481 7.9087 300.7867 1149024 180.1482 153.5333 1.21369776 342

Live tracking and technical data element details for AEHF-5 (USA 292) (NORAD 44481). AEHF-5 (USA 292) can be tracked NOW for your location showing map with azimuth and elevation plus other details from your city location.

Track the satellite on the map from your city or location and see movement details for azimuth, elevation, latitude, longitude, range, height, and movement on the map or in text.







IsCatalogInMostPopularTable: catalog: 44481, numindb: 15
Update: records affected: 1



GetName: 44481 AEHF-5 (USA 292)

Hit Count: updated at: Wed, 23 Oct 2019 00:58:18 GMT